VLG1516 LFMN-LEBL

Flight info

Callsign VLG1516
Flight time 0h 54m
Altitude 30000
Route EPOLO DCT SOFFY/N0463F290 DCT NILDU DCT BISBA
Aircraft A320/M-SDE3FGHIRWY/LB1

Departure

Time 2026-05-05 14:50
Airport Nice-Côte d'Azur Airport (LFMN)

Arrival

Time 2026-05-05 15:44
Airport Josep Tarradellas Barcelona-El Prat Airport (LEBL)
Time Latitude Longitude Altitude Speed Heading
2026-05-05 13:28 43.65814 7.20533 24 ft 0 kts 315°
2026-05-05 14:40 43.65811 7.20537 22 ft 3 kts 314°
2026-05-05 14:40 43.65798 7.20558 21 ft 3 kts 307°
2026-05-05 14:40 43.65790 7.20573 21 ft 3 kts 301°
2026-05-05 14:40 43.65781 7.20597 21 ft 3 kts 290°
2026-05-05 14:41 43.65776 7.20617 21 ft 0 kts 278°
2026-05-05 14:44 43.65774 7.20614 21 ft 0 kts 253°
2026-05-05 14:44 43.65769 7.20613 25 ft 2 kts 206°
2026-05-05 14:44 43.65709 7.20563 21 ft 18 kts 226°
2026-05-05 14:44 43.65631 7.20456 21 ft 15 kts 224°
2026-05-05 14:45 43.65562 7.20363 21 ft 13 kts 224°
2026-05-05 14:45 43.65501 7.20279 21 ft 12 kts 224°
2026-05-05 14:45 43.65445 7.20205 21 ft 10 kts 223°
2026-05-05 14:45 43.65384 7.20177 21 ft 9 kts 173°
2026-05-05 14:46 43.65337 7.20217 22 ft 10 kts 139°
2026-05-05 14:46 43.65273 7.20299 21 ft 15 kts 136°
2026-05-05 14:46 43.65185 7.20416 21 ft 20 kts 136°
2026-05-05 14:46 43.65065 7.20469 21 ft 15 kts 210°
2026-05-05 14:47 43.64993 7.20382 22 ft 16 kts 221°
2026-05-05 14:47 43.64902 7.20254 21 ft 21 kts 225°
2026-05-05 14:47 43.64806 7.20266 22 ft 14 kts 139°
2026-05-05 14:47 43.64767 7.20375 23 ft 15 kts 59°
2026-05-05 14:48 43.64789 7.20404 23 ft 0 kts 43°
2026-05-05 14:49 43.64789 7.20405 23 ft 1 kts 43°
2026-05-05 14:49 43.64838 7.20473 24 ft 34 kts 46°
2026-05-05 14:49 43.65218 7.21009 22 ft 119 kts 46°
2026-05-05 14:50 43.65936 7.22034 284 ft 161 kts 49°
2026-05-05 14:50 43.66720 7.23159 1127 ft 167 kts 53°
2026-05-05 14:50 43.67146 7.24655 1767 ft 178 kts 95°
2026-05-05 14:50 43.66591 7.26236 2078 ft 198 kts 135°
2026-05-05 14:51 43.65495 7.27522 2558 ft 212 kts 143°
2026-05-05 14:51 43.64308 7.28787 3234 ft 218 kts 143°
2026-05-05 14:51 43.63112 7.30061 4019 ft 218 kts 143°
2026-05-05 14:51 43.61895 7.31354 4767 ft 222 kts 146°
2026-05-05 14:52 43.60664 7.32664 5459 ft 224 kts 152°
2026-05-05 14:52 43.59197 7.33197 6097 ft 220 kts 191°
2026-05-05 14:52 43.57840 7.32332 6737 ft 218 kts 220°
2026-05-05 14:52 43.56616 7.31067 7456 ft 221 kts 216°
2026-05-05 14:53 43.55327 7.29892 8187 ft 223 kts 215°
2026-05-05 14:53 43.54016 7.28734 8928 ft 226 kts 215°
2026-05-05 14:53 43.52688 7.27562 9678 ft 229 kts 215°
2026-05-05 14:53 43.51283 7.26307 9999 ft 251 kts 215°
2026-05-05 14:54 43.49770 7.24945 10251 ft 275 kts 215°
2026-05-05 14:54 43.48079 7.23417 10486 ft 299 kts 215°
2026-05-05 14:54 43.46300 7.21803 10667 ft 322 kts 215°
2026-05-05 14:54 43.44364 7.20042 11089 ft 334 kts 215°
2026-05-05 14:55 43.42434 7.18293 11763 ft 338 kts 215°
2026-05-05 14:55 43.40466 7.16511 12498 ft 339 kts 215°
2026-05-05 14:55 43.38495 7.14727 13316 ft 339 kts 215°
2026-05-05 14:55 43.36522 7.12939 14020 ft 341 kts 215°
2026-05-05 14:56 43.34530 7.11133 14638 ft 343 kts 215°
2026-05-05 14:56 43.32536 7.09326 15245 ft 346 kts 215°
2026-05-05 14:56 43.30518 7.07498 15854 ft 349 kts 214°
2026-05-05 14:56 43.28478 7.05654 16450 ft 351 kts 214°
2026-05-05 14:57 43.26425 7.03798 17045 ft 354 kts 214°
2026-05-05 14:57 43.24361 7.01934 17635 ft 357 kts 214°
2026-05-05 14:57 43.22273 7.00049 18228 ft 360 kts 214°
2026-05-05 14:57 43.20174 6.98158 18738 ft 363 kts 214°
2026-05-05 14:58 43.18084 6.96197 19286 ft 364 kts 219°
2026-05-05 14:58 43.16236 6.93811 19817 ft 366 kts 227°
2026-05-05 14:58 43.14512 6.91297 20347 ft 367 kts 227°
2026-05-05 14:58 43.12753 6.88739 20873 ft 369 kts 227°
2026-05-05 14:59 43.10991 6.86183 21382 ft 371 kts 227°
2026-05-05 14:59 43.09217 6.83617 21898 ft 372 kts 227°
2026-05-05 14:59 43.07432 6.81041 22443 ft 372 kts 227°
2026-05-05 14:59 43.05653 6.78473 22929 ft 373 kts 227°
2026-05-05 15:00 43.03858 6.75881 23394 ft 375 kts 227°
2026-05-05 15:00 43.02670 6.74165 23636 ft 376 kts 227°
2026-05-05 15:00 43.00244 6.70663 24085 ft 380 kts 227°
2026-05-05 15:00 42.98427 6.68041 24451 ft 381 kts 227°
2026-05-05 15:01 42.96605 6.65415 24827 ft 381 kts 227°
2026-05-05 15:01 42.94775 6.62786 25191 ft 382 kts 227°
2026-05-05 15:01 42.92933 6.60155 25559 ft 383 kts 227°
2026-05-05 15:01 42.91206 6.57400 25908 ft 383 kts 235°
2026-05-05 15:02 42.89933 6.54219 26262 ft 385 kts 246°
2026-05-05 15:02 42.89195 6.50738 26601 ft 390 kts 257°
2026-05-05 15:02 42.89028 6.46985 26935 ft 397 kts 268°
2026-05-05 15:02 42.89378 6.43214 27314 ft 401 kts 272°
2026-05-05 15:03 42.89788 6.39447 27640 ft 401 kts 272°
2026-05-05 15:03 42.90191 6.35688 27943 ft 401 kts 272°
2026-05-05 15:03 42.90584 6.31984 28228 ft 402 kts 272°
2026-05-05 15:03 42.90983 6.28202 28504 ft 403 kts 272°
2026-05-05 15:04 42.91379 6.24422 28769 ft 404 kts 271°
2026-05-05 15:04 42.91772 6.20631 29028 ft 404 kts 271°
2026-05-05 15:04 42.92169 6.16837 29387 ft 402 kts 271°
2026-05-05 15:04 42.92359 6.13103 29758 ft 392 kts 261°
2026-05-05 15:05 42.90802 6.06235 29950 ft 376 kts 244°
2026-05-05 15:05 42.89743 6.02980 29946 ft 375 kts 244°
2026-05-05 15:06 42.87637 5.96476 29938 ft 374 kts 244°
2026-05-05 15:06 42.85535 5.89979 29935 ft 375 kts 244°
2026-05-05 15:07 42.83428 5.83484 29934 ft 374 kts 244°
2026-05-05 15:07 42.81322 5.77006 29930 ft 374 kts 244°
2026-05-05 15:08 42.79206 5.70521 29970 ft 374 kts 244°
2026-05-05 15:08 42.77103 5.64090 29962 ft 373 kts 244°
2026-05-05 15:09 42.74990 5.57640 29953 ft 373 kts 244°
2026-05-05 15:09 42.72875 5.51202 29950 ft 373 kts 243°
2026-05-05 15:10 42.70753 5.44764 29944 ft 373 kts 243°
2026-05-05 15:10 42.68630 5.38336 29941 ft 373 kts 243°
2026-05-05 15:11 42.66510 5.31911 29969 ft 373 kts 243°
2026-05-05 15:11 42.64379 5.25496 29941 ft 371 kts 243°
2026-05-05 15:12 42.62250 5.19113 29933 ft 371 kts 243°
2026-05-05 15:12 42.60119 5.12719 29933 ft 371 kts 243°
2026-05-05 15:13 42.57987 5.06328 29933 ft 371 kts 243°
2026-05-05 15:13 42.55849 4.99947 29932 ft 371 kts 243°
2026-05-05 15:14 42.53713 4.93577 29952 ft 371 kts 243°
2026-05-05 15:14 42.51586 4.87243 29934 ft 371 kts 243°
2026-05-05 15:15 42.49445 4.80890 29886 ft 370 kts 243°
2026-05-05 15:15 42.47302 4.74562 29895 ft 370 kts 243°
2026-05-05 15:16 42.45164 4.68231 29901 ft 369 kts 243°
2026-05-05 15:16 42.43019 4.61916 29907 ft 369 kts 243°
2026-05-05 15:17 42.40869 4.55605 29962 ft 369 kts 243°
2026-05-05 15:17 42.38718 4.49300 29935 ft 369 kts 243°
2026-05-05 15:18 42.36561 4.42993 29722 ft 370 kts 243°
2026-05-05 15:18 42.35478 4.39829 29430 ft 372 kts 243°
2026-05-05 15:18 42.34387 4.36652 29152 ft 373 kts 243°
2026-05-05 15:18 42.33290 4.33464 28874 ft 375 kts 243°
2026-05-05 15:19 42.32185 4.30259 28565 ft 376 kts 243°
2026-05-05 15:19 42.31087 4.27069 28296 ft 378 kts 243°
2026-05-05 15:19 42.29979 4.23839 28023 ft 379 kts 243°
2026-05-05 15:19 42.28862 4.20592 27757 ft 381 kts 243°
2026-05-05 15:20 42.27741 4.17348 27517 ft 383 kts 243°
2026-05-05 15:20 42.26609 4.14077 27249 ft 385 kts 243°
2026-05-05 15:20 42.25475 4.10801 27007 ft 385 kts 243°
2026-05-05 15:20 42.24342 4.07535 26742 ft 384 kts 243°
2026-05-05 15:21 42.23222 4.04307 26485 ft 384 kts 243°
2026-05-05 15:21 42.22078 4.01012 26230 ft 383 kts 243°
2026-05-05 15:21 42.21330 3.98855 26064 ft 383 kts 243°
2026-05-05 15:21 42.19834 3.94543 25731 ft 382 kts 243°
2026-05-05 15:22 42.19074 3.92351 25568 ft 382 kts 243°
2026-05-05 15:22 42.17949 3.89116 25323 ft 381 kts 243°
2026-05-05 15:22 42.16820 3.85882 25082 ft 381 kts 243°
2026-05-05 15:22 42.15694 3.82660 24841 ft 380 kts 243°
2026-05-05 15:23 42.14563 3.79430 24627 ft 381 kts 243°
2026-05-05 15:23 42.13432 3.76206 24375 ft 381 kts 243°
2026-05-05 15:23 42.12298 3.72974 24134 ft 380 kts 243°
2026-05-05 15:23 42.11174 3.69785 23902 ft 372 kts 243°
2026-05-05 15:24 42.10087 3.66700 23669 ft 358 kts 243°
2026-05-05 15:24 42.09003 3.63744 23431 ft 346 kts 238°
2026-05-05 15:24 42.07607 3.61154 23157 ft 340 kts 228°
2026-05-05 15:24 42.05976 3.58870 22883 ft 338 kts 226°
2026-05-05 15:25 42.04342 3.56596 22608 ft 337 kts 226°
2026-05-05 15:25 42.02718 3.54327 22339 ft 336 kts 227°
2026-05-05 15:25 42.01098 3.52063 22072 ft 335 kts 227°
2026-05-05 15:25 41.99485 3.49808 21808 ft 334 kts 227°
2026-05-05 15:26 41.97875 3.47558 21542 ft 334 kts 226°
2026-05-05 15:26 41.96263 3.45312 21279 ft 333 kts 226°
2026-05-05 15:26 41.94691 3.43040 21040 ft 332 kts 231°
2026-05-05 15:26 41.93272 3.40601 20757 ft 331 kts 232°
2026-05-05 15:27 41.91887 3.38135 20493 ft 329 kts 233°
2026-05-05 15:27 41.90529 3.35672 20243 ft 328 kts 233°
2026-05-05 15:27 41.89170 3.33207 19994 ft 328 kts 233°
2026-05-05 15:27 41.87813 3.30754 19748 ft 327 kts 233°
2026-05-05 15:28 41.86454 3.28306 19461 ft 327 kts 233°
2026-05-05 15:28 41.85093 3.25865 19101 ft 326 kts 233°
2026-05-05 15:28 41.83745 3.23463 18746 ft 325 kts 233°
2026-05-05 15:28 41.82385 3.21047 18387 ft 324 kts 232°
2026-05-05 15:29 41.81024 3.18629 17904 ft 323 kts 232°
2026-05-05 15:29 41.79675 3.16232 17387 ft 322 kts 232°
2026-05-05 15:29 41.78333 3.13847 16894 ft 320 kts 232°
2026-05-05 15:29 41.76987 3.11452 16397 ft 319 kts 232°
2026-05-05 15:30 41.75650 3.09079 15911 ft 318 kts 232°
2026-05-05 15:30 41.74318 3.06715 15430 ft 317 kts 232°
2026-05-05 15:30 41.72992 3.04361 14932 ft 317 kts 232°
2026-05-05 15:30 41.71648 3.01979 14271 ft 323 kts 232°
2026-05-05 15:31 41.70284 2.99563 13588 ft 327 kts 232°
2026-05-05 15:31 41.68901 2.97118 12824 ft 331 kts 232°
2026-05-05 15:31 41.67525 2.94687 12106 ft 323 kts 232°
2026-05-05 15:31 41.66208 2.92362 11392 ft 312 kts 232°
2026-05-05 15:32 41.64918 2.90082 10711 ft 303 kts 232°
2026-05-05 15:32 41.63655 2.87855 9985 ft 298 kts 232°
2026-05-05 15:32 41.62414 2.85669 9208 ft 293 kts 232°
2026-05-05 15:32 41.61199 2.83533 8728 ft 286 kts 232°
2026-05-05 15:33 41.60020 2.81460 8592 ft 274 kts 232°
2026-05-05 15:33 41.58892 2.79475 8450 ft 261 kts 232°
2026-05-05 15:33 41.57814 2.77579 8146 ft 253 kts 232°
2026-05-05 15:33 41.56757 2.75722 7798 ft 250 kts 232°
2026-05-05 15:34 41.55731 2.73921 7464 ft 237 kts 232°
2026-05-05 15:34 41.54750 2.72198 7116 ft 229 kts 232°
2026-05-05 15:34 41.53789 2.70515 6773 ft 227 kts 232°
2026-05-05 15:34 41.52830 2.68838 6429 ft 227 kts 232°
2026-05-05 15:35 41.51931 2.67111 6085 ft 228 kts 240°
2026-05-05 15:35 41.51174 2.65257 5718 ft 227 kts 241°
2026-05-05 15:35 41.50434 2.63401 5372 ft 226 kts 241°
2026-05-05 15:35 41.49701 2.61549 5020 ft 226 kts 242°
2026-05-05 15:36 41.48968 2.59699 4661 ft 225 kts 241°
2026-05-05 15:36 41.48238 2.57862 4314 ft 227 kts 241°
2026-05-05 15:36 41.47473 2.55943 3956 ft 237 kts 242°
2026-05-05 15:36 41.46698 2.53994 3553 ft 238 kts 242°
2026-05-05 15:37 41.45925 2.52046 3166 ft 238 kts 241°
2026-05-05 15:37 41.45166 2.50135 3040 ft 237 kts 242°
2026-05-05 15:37 41.44390 2.48185 2911 ft 238 kts 241°
2026-05-05 15:37 41.43615 2.46244 2791 ft 237 kts 241°
2026-05-05 15:38 41.42845 2.44315 2661 ft 233 kts 241°
2026-05-05 15:38 41.42090 2.42426 2536 ft 232 kts 241°
2026-05-05 15:38 41.41334 2.40539 2422 ft 231 kts 241°
2026-05-05 15:38 41.40580 2.38662 2314 ft 226 kts 240°
2026-05-05 15:39 41.39750 2.36938 2299 ft 221 kts 238°
2026-05-05 15:39 41.39015 2.35141 2302 ft 221 kts 243°
2026-05-05 15:39 41.38366 2.33282 2303 ft 221 kts 245°
2026-05-05 15:39 41.37736 2.31420 2305 ft 221 kts 245°
2026-05-05 15:40 41.37110 2.29573 2305 ft 221 kts 245°
2026-05-05 15:40 41.36479 2.27713 2310 ft 217 kts 243°
2026-05-05 15:40 41.35869 2.25916 2296 ft 203 kts 244°
2026-05-05 15:40 41.35319 2.24298 2269 ft 190 kts 243°
2026-05-05 15:41 41.34784 2.22725 2034 ft 183 kts 245°
2026-05-05 15:41 41.34255 2.21173 1800 ft 179 kts 243°
2026-05-05 15:41 41.33757 2.19709 1563 ft 172 kts 244°
2026-05-05 15:41 41.33276 2.18297 1334 ft 160 kts 245°
2026-05-05 15:42 41.32837 2.17009 1127 ft 147 kts 242°
2026-05-05 15:42 41.32424 2.15796 954 ft 139 kts 244°
2026-05-05 15:42 41.32024 2.14627 760 ft 139 kts 244°
2026-05-05 15:42 41.31619 2.13455 583 ft 140 kts 243°
2026-05-05 15:43 41.31207 2.12255 399 ft 143 kts 245°
2026-05-05 15:43 41.30821 2.11036 212 ft 145 kts 243°
2026-05-05 15:43 41.30387 2.09829 50 ft 144 kts 242°
2026-05-05 15:43 41.29990 2.08717 22 ft 109 kts 243°
2026-05-05 15:44 41.29750 2.08018 20 ft 60 kts 245°
2026-05-05 15:44 41.29622 2.07630 19 ft 44 kts 246°
2026-05-05 15:44 41.29501 2.07286 20 ft 35 kts 245°
2026-05-05 15:44 41.29413 2.07193 17 ft 8 kts 141°
2026-05-05 15:45 41.29357 2.07231 16 ft 0 kts 156°
2026-05-05 15:45 41.29336 2.07269 16 ft 6 kts 106°
2026-05-05 15:46 41.29327 2.07321 16 ft 5 kts 111°
2026-05-05 15:46 41.29306 2.07341 17 ft 0 kts 154°
2026-05-05 15:46 41.29297 2.07348 16 ft 7 kts 147°
2026-05-05 15:46 41.29236 2.07367 18 ft 6 kts 207°
2026-05-05 15:47 41.29190 2.07347 19 ft 6 kts 166°
2026-05-05 15:47 41.29161 2.07363 19 ft 7 kts 157°
2026-05-05 15:47 41.29146 2.07371 22 ft 0 kts 156°